Regional Weather Roundup
Issued by NWS

Home | Current Version | Previous Version | Text Only | Print | Product List | Glossary On
Versions: 1 2 3 4 5 6 7 8 9 10 11 12 13 14 15 16 17 18 19 20 21 22 23 24 25 26 27 28 29 30 31 32 33 34 35 36 37 38 39 40 41 42 43 44 45 46 47 48 49 50
000
ASUS44 KOUN 281610
RWROK

WEATHER ROUNDUP FOR OKLAHOMA
NATIONAL WEATHER SERVICE NORMAN OK
1100 AM CDT SUN AUG 28 2016

NOTE: "FAIR" INDICATES FEW OR NO CLOUDS BELOW 12,000 FEET WITH NO
      SIGNIFICANT WEATHER AND/OR OBSTRUCTIONS TO VISIBILITY.

OKZ001>007-009>012-014-015-017-281700-
NORTHWEST OKLAHOMA AND THE PANHANDLE

CITY           SKY/WX    TMP DP  RH WIND       PRES   REMARKS
GAGE           SUNNY     81  68  64 S16       30.11R
GUYMON         MOSUNNY   74  64  71 S10       30.14S
ENID/WOODRING  MOSUNNY   86  72  62 S6        30.09F HX  92
$$

OKZ016-021>023-033>039-044-045-281700-
SOUTHWEST OKLAHOMA

CITY           SKY/WX    TMP DP  RH WIND       PRES   REMARKS
LAWTON/REGL    PTSUNNY   86  70  58 SE9       30.10S HX  90
LAWTON/FT SILL SUNNY     85  72  65 S6        30.09S HX  90
FREDERICK      SUNNY     84  72  67 S6        30.07S
CLINTON        SUNNY     82  68  62 S12       30.13F
HOBART         SUNNY     86  69  56 SW7       30.11F HX  90
ALTUS AFB      SUNNY     83  69  64 S8        30.10S
$$

OKZ018>020-024>031-281700-
CENTRAL OKLAHOMA

CITY           SKY/WX    TMP DP  RH WIND       PRES   REMARKS
OKLAHOMA CITY  MOSUNNY   84  72  67 S7        30.12S
OKC/WILEY POST MOSUNNY   84  71  65 S8        30.12S
OKC/TINKER AFB MOSUNNY   83  68  59 S8        30.12S
STILLWATER     SUNNY     85  72  65 S9        30.11F HX  91
GUTHRIE        MOSUNNY   83  72  69 S9        30.11S
$$

OKZ008-013-054>072-281700-
NORTHEAST OKLAHOMA

CITY           SKY/WX    TMP DP  RH WIND       PRES   REMARKS
TULSA          MOSUNNY   87  74  64 S3        30.10S HX  95
TULSA/JONES    SUNNY     86  75  69 VRB3      30.11S HX  95
PONCA CITY     MOSUNNY   85  70  60 S7        30.10F
BARTLESVILLE   MOSUNNY   86  74  67 VRB3      30.13S HX  94
MUSKOGEE       SUNNY     87  72  60 SE7       30.12S HX  93
$$

OKZ032-040>043-046>053-073>077-281700-
SOUTH CENTRAL/SOUTHEAST OKLAHOMA

CITY           SKY/WX    TMP DP  RH WIND       PRES   REMARKS
ARDMORE/DWNTWN MOSUNNY   82  70  65 SE5       30.10S
MCALESTER      SUNNY     85  71  63 SE6       30.12S HX  90
$$





USA.gov is the U.S. government's official web portal to all federal, state and local government web resources and services.